Snowfall_Accumulation
0.0 0.0 0.0 0.0 0.0 0.0 0.0 0.0 0.0 0.0 0.0 0.0 0.0 0.0 0.0 0.0 0.0 0.0 0.0 0.0 0.0 25.4 1.4 0.0 0.0 0.4 3.3 5.1 13.8 6.9 11.3 7.1 9.2 16.8 14.8 3.4 7.1 1.6 2.9 2.3 7.1 6.3 8.5 10.6 13.0 28.3 17.3 2.6 2.1 9.8 11.9 5.4 5.6 5.6
0.0 0.0 0.0 0.0 0.0 0.0 0.0 0.0 0.0 0.0 0.0 0.0 0.0 0.0 0.0 0.0 0.0 0.0 0.0 0.0 0.0 3.2 1.9 0.0 0.0 0.0 0.0 0.1 4.1 13.5 6.8 3.1 7.6 14.4 9.5 13.0 15.1 9.0 3.0 6.3 1.0 8.7 8.8 12.0 10.2 12.6 9.0 5.6 8.9 8.0 4.2 2.6 2.3 2.9
0.0 0.0 0.0 0.0 0.0 0.0 0.0 0.0 0.0 0.0 0.0 0.0 0.0 0.0 0.0 0.0 0.0 0.0 0.0 0.0 0.0 10.7 4.9 1.7 0.8 0.1 0.0 0.3 0.4 14.3 12.3 3.9 8.5 4.4 15.2 18.1 22.3 7.9 9.0 4.8 1.8 2.7 1.5 4.8 3.6 3.6 1.2 5.3 2.7 1.3 1.5 2.9 2.2 1.4
0.0 0.0 0.0 0.0 0.0 0.0 0.0 0.0 0.0 0.0 0.0 0.0 0.0 0.0 0.0 0.0 0.0 0.0 0.0 0.0 0.0 15.2 40.3 5.9 0.1 0.1 0.0 0.1 2.1 3.8 5.4 6.8 8.8 9.6 27.1 28.3 23.2 6.3 8.1 2.7 2.1 2.1 1.8 4.7 5.9 1.0 1.2 2.5 0.8 1.2 3.0 2.3 1.5 0.4
0.0 0.0 0.0 0.0 0.0 0.0 0.0 0.0 0.0 0.0 0.0 0.0 0.0 0.0 0.0 0.0 0.0 0.0 0.0 0.0 0.0 4.6 40.2 14.8 3.1 0.8 0.0 0.1 1.9 3.9 6.4 9.1 13.6 21.2 28.4 24.1 9.0 11.7 14.5 9.9 9.7 3.4 4.4 5.8 5.5 2.6 4.5 2.4 1.9 2.7 2.8 2.6 2.7 2.3
0.0 0.0 0.0 0.0 0.0 0.0 0.0 0.0 0.0 0.0 0.0 0.0 0.0 0.0 0.0 0.0 0.0 0.0 9.0 0.0 0.0 0.3 26.4 38.7 5.3 0.5 0.1 0.4 1.6 3.2 4.6 6.8 11.4 17.4 21.5 14.4 9.6 13.9 25.1 14.2 3.4 1.7 2.1 5.3 6.0 3.7 4.6 3.7 2.6 2.1 3.6 2.9 2.4 2.8
0.0 0.0 0.0 0.0 0.0 0.0 0.0 0.0 0.0 0.0 0.0 0.0 0.0 0.0 0.0 0.0 0.0 3.8 9.8 1.5 0.0 0.0 40.2 62.1 33.1 4.0 1.6 1.4 3.3 4.2 4.4 6.5 11.5 21.0 22.3 13.2 10.1 14.5 27.0 15.2 2.3 1.8 2.9 5.0 4.1 3.4 3.8 2.1 3.3 3.6 2.4 2.1 3.5 3.1
0.0 0.0 0.0 0.0 0.0 0.0 0.0 0.0 0.0 0.0 0.0 0.0 0.0 0.0 0.0 0.0 0.6 3.3 2.8 1.2 1.1 11.4 30.6 85.1 48.9 13.3 4.3 5.1 8.1 7.3 10.7 10.5 22.7 21.5 17.1 10.6 11.1 16.9 29.5 3.4 2.5 2.4 3.2 4.7 4.4 3.7 6.5 4.9 4.6 4.4 2.2 3.5 2.8 3.1
0.0 0.0 0.0 0.0 0.0 0.0 0.0 0.0 0.0 0.0 0.0 0.0 0.0 0.0 2.3 3.4 3.8 3.4 1.6 3.1 4.6 7.8 73.1 54.9 32.8 18.1 7.2 5.4 7.6 10.2 11.8 31.4 22.3 24.1 12.2 9.7 22.8 32.4 16.9 6.8 3.1 4.9 9.1 7.9 6.7 5.5 4.4 4.3 5.3 5.2 3.9 2.9 4.4 6.9
0.0 0.0 0.0 0.0 0.0 0.0 0.0 0.0 0.0 0.0 0.0 0.0 3.2 8.2 22.7 7.0 1.0 1.6 5.4 15.5 30.8 43.6 45.6 37.0 14.5 15.8 7.8 8.4 14.4 19.2 24.5 35.0 44.1 25.7 14.4 26.2 23.5 14.0 10.5 11.3 10.9 10.8 10.9 10.6 12.0 8.8 5.8 7.6 7.1 7.8 9.5 9.8 9.7 10.6
0.0 0.0 0.0 0.0 0.0 0.0 0.0 0.0 0.0 0.0 0.0 8.4 24.3 26.9 10.6 2.3 5.4 15.6 44.3 48.4 41.1 44.7 21.9 15.0 10.2 13.4 10.5 22.2 25.8 25.7 37.1 34.0 43.7 23.0 19.2 25.8 21.6 12.6 10.0 12.8 13.2 13.2 13.1 13.0 13.5 13.6 15.1 17.0 16.8 13.4 11.4 12.9 12.4 12.5
0.0 0.0 0.0 0.0 0.0 0.0 0.0 0.0 0.0 0.5 12.9 9.2 12.6 13.1 14.1 29.4 45.4 53.2 51.6 26.5 21.2 19.9 16.3 11.9 9.9 13.3 19.4 17.6 34.1 37.2 36.8 33.5 35.4 14.3 24.0 22.3 13.9 11.9 14.5 15.6 16.1 15.6 14.8 13.5 13.4 14.5 13.6 13.9 15.1 14.8 15.1 15.2 13.7 12.6
0.0 0.0 0.0 0.0 0.0 0.0 0.0 0.0 0.0 0.0 5.1 16.4 37.2 53.6 44.8 48.5 66.2 49.9 28.9 19.6 21.4 16.9 17.4 16.7 18.6 17.3 20.0 24.5 37.2 33.4 38.5 30.1 14.8 20.9 18.8 17.6 13.2 12.8 16.0 17.2 17.2 16.4 14.6 14.0 14.0 12.6 12.3 12.9 12.2 12.1 12.2 10.3 10.3 9.9
0.0 0.0 0.0 0.0 0.0 0.0 0.0 0.0 0.0 2.2 17.4 44.0 55.8 61.2 37.8 37.1 20.4 18.1 15.7 16.3 16.7 19.0 20.6 21.0 22.4 22.9 19.7 31.6 28.2 36.3 25.9 14.7 28.9 21.9 19.1 16.6 15.9 14.8 13.7 14.6 14.4 14.7 14.4 13.7 15.9 15.5 13.6 12.1 11.3 10.0 10.7 11.9 10.4 9.6
0.0 0.0 0.0 0.0 0.0 0.0 0.0 0.9 4.8 12.6 38.8 66.4 49.8 43.8 25.8 14.4 11.4 15.5 15.8 15.5 18.3 19.1 23.8 24.5 25.0 22.7 26.6 33.8 22.8 18.6 26.3 26.5 22.6 20.6 17.7 17.6 16.8 16.1 15.3 14.1 13.1 11.8 12.7 12.2 12.1 12.2 13.5 11.1 8.7 7.9 9.7 10.1 9.7 9.1
0.0 0.0 0.2 0.0 0.0 1.0 3.1 7.9 14.8 31.8 47.0 55.1 42.7 23.6 11.3 11.6 13.5 12.5 16.1 16.7 17.0 18.9 18.4 22.3 23.6 26.5 26.1 22.4 23.4 21.4 20.9 22.2 21.2 20.7 19.6 17.4 15.9 15.5 15.9 15.2 14.6 14.5 14.4 14.4 13.0 13.8 12.1 12.8 14.5 14.4 11.0 10.0 9.9 9.7
0.0 5.6 0.2 0.1 2.5 6.2 11.3 18.9 43.5 65.5 67.5 49.6 22.3 12.7 14.6 12.0 12.6 12.7 11.9 12.2 10.3 13.4 16.3 17.2 25.3 20.0 18.7 21.4 19.2 14.3 19.7 21.3 18.7 15.8 13.9 14.8 14.3 13.9 12.5 11.0 10.6 9.2 8.8 8.9 10.1 11.2 13.2 13.5 12.7 10.9 11.6 14.5 13.2 13.0
4.1 0.9 1.0 2.9 8.5 13.2 42.0 43.9 65.5 69.3 52.0 24.1 13.9 16.4 12.8 12.5 11.0 10.2 10.2 9.7 9.9 9.1 9.9 13.8 7.8 10.5 11.5 11.8 13.2 16.6 13.8 11.3 10.2 10.9 10.7 11.2 10.7 9.8 9.5 8.8 8.0 7.8 7.6 8.5 9.0 9.0 8.2 7.8 7.9 10.5 10.9 11.5 8.5 9.7
6.6 6.4 2.6 5.0 8.7 27.0 69.6 77.9 53.2 49.1 23.2 15.8 17.6 15.8 11.8 9.5 8.2 7.6 6.8 5.8 6.1 5.3 6.9 12.6 14.5 8.3 8.2 11.2 12.5 11.5 11.3 9.2 9.1 7.9 8.8 9.3 8.9 9.3 9.0 8.5 7.8 7.8 9.1 9.5 7.3 8.7 9.8 8.5 10.8 9.6 10.0 8.1 8.2 10.0
3.0 7.3 10.1 10.6 10.5 51.4 74.2 61.4 26.5 21.5 18.1 15.0 12.8 13.6 10.4 8.1 6.3 3.9 4.1 5.2 7.3 10.4 14.6 17.4 13.2 13.6 14.5 14.2 12.9 12.1 10.6 8.5 7.3 6.2 6.3 5.9 6.3 5.7 5.8 5.6 6.3 7.1 6.3 5.1 4.9 6.9 6.5 4.4 4.7 6.5 7.8 9.2 7.5 8.4
16.6 26.7 19.5 14.7 33.7 39.8 48.9 39.4 26.2 14.1 12.0 9.2 14.2 8.5 8.6 5.7 4.4 5.2 5.7 6.5 11.1 16.3 14.6 13.4 13.7 14.2 12.9 12.3 11.0 9.2 8.9 8.5 9.0 8.9 8.8 8.7 7.5 4.6 3.9 3.4 2.6 2.1 1.6 2.2 1.7 2.1 2.4 2.4 3.1 3.5 2.2 3.1 3.2 3.8
24.4 18.7 38.1 31.2 67.4 61.2 49.3 28.2 17.3 11.1 7.7 11.4 7.8 6.3 6.9 5.1 4.7 6.1 5.5 9.3 15.9 13.7 13.0 14.8 14.6 12.6 9.5 9.3 11.1 10.1 9.9 7.3 6.4 5.5 5.7 6.0 3.3 2.7 2.3 2.5 2.1 1.8 1.4 1.4 1.7 1.0 0.8 0.7 2.7 3.6 1.1 1.5 0.9 0.5
11.6 19.9 49.6 53.2 64.8 56.0 43.2 16.1 14.8 12.1 9.1 9.6 5.6 6.0 7.0 4.3 4.6 4.7 10.2 8.7 9.2 11.1 12.7 11.8 10.3 11.7 11.2 10.9 9.4 7.7 5.8 4.1 3.8 3.6 2.9 2.2 2.1 2.1 2.1 1.1 1.6 1.8 1.2 1.0 0.7 0.9 0.9 1.7 1.1 2.4 0.3 0.1 1.2 1.8
9.4 52.0 65.7 63.8 45.1 39.2 23.0 20.5 14.6 10.0 10.8 8.9 7.0 6.3 4.1 2.8 6.4 8.5 9.8 6.6 8.0 8.7 9.3 9.5 7.8 8.4 7.9 8.2 8.3 7.7 6.3 4.7 3.0 2.2 3.0 2.2 1.6 1.4 1.7 1.7 1.3 1.0 1.9 1.9 0.9 1.1 0.9 0.7 1.7 0.6 0.3 0.2 0.9 2.0
72.5 84.5 58.9 55.2 30.7 18.7 14.0 11.4 10.0 9.5 9.4 6.8 4.4 3.4 3.5 4.3 7.0 6.7 4.5 5.5 6.0 6.9 8.0 7.8 6.5 6.7 6.1 5.8 5.5 4.7 3.9 4.1 5.4 4.5 2.0 3.5 3.8 2.1 1.1 0.9 1.0 1.3 1.7 1.6 1.0 1.3 0.7 0.9 0.6 0.4 0.3 1.3 2.4 4.4
76.4 41.5 29.7 15.0 10.9 8.3 7.3 6.9 6.4 5.5 4.2 5.4 6.4 5.4 4.3 6.2 8.4 6.7 3.3 5.4 6.3 7.0 6.6 5.1 5.4 3.7 2.9 3.3 4.4 3.8 3.9 3.0 2.8 3.8 3.1 4.0 3.9 5.0 3.5 1.3 2.6 1.3 1.8 2.3 3.7 2.9 1.7 1.1 0.9 0.7 1.4 1.7 5.2 9.2
51.8 29.5 12.1 5.2 5.6 5.7 5.3 4.8 3.9 3.7 4.4 5.5 4.3 3.8 4.2 11.1 3.8 4.0 5.3 6.1 5.4 3.9 2.2 2.6 5.1 5.3 4.3 3.7 2.3 2.9 3.1 3.6 3.5 2.7 2.8 5.6 5.5 4.8 4.9 6.3 5.7 2.6 6.4 5.0 3.6 4.8 5.1 2.5 1.9 1.9 2.5 2.7 2.4 4.4
15.3 10.1 8.2 7.4 5.1 2.4 2.0 2.1 2.9 4.4 4.4 3.6 4.2 3.9 4.3 2.5 3.3 4.7 5.3 5.5 2.1 0.2 1.3 2.0 2.5 3.5 3.6 3.4 3.7 4.0 3.8 3.7 4.0 3.9 5.3 6.3 6.3 6.3 5.9 5.3 5.0 8.6 9.8 4.5 8.1 8.8 6.1 4.9 4.1 4.3 4.2 3.7 1.9 2.4
7.3 6.8 5.8 5.6 3.7 2.6 2.3 2.0 1.6 2.3 2.3 2.7 1.9 1.6 2.4 3.6 5.0 4.8 4.6 2.1 0.1 0.9 1.0 1.6 2.2 2.5 3.4 3.7 3.5 4.1 4.2 4.5 4.2 3.1 2.7 3.3 5.0 6.8 6.6 6.1 6.6 6.5 4.7 5.1 5.2 11.1 11.2 16.0 18.5 20.2 11.4 7.3 5.3 4.5
4.1 1.5 0.7 0.5 1.5 3.1 2.2 1.9 1.6 2.4 2.4 2.2 1.8 2.1 2.6 4.7 7.5 6.1 1.6 0.3 0.0 1.4 1.9 2.5 2.8 3.1 4.0 3.9 4.4 3.9 4.8 5.4 6.3 7.3 7.8 3.5 5.2 5.0 7.4 7.2 7.1 7.0 7.3 7.5 8.2 8.5 10.7 14.8 13.5 12.4 9.6 8.1 7.6 6.6
1.0 0.4 0.2 0.2 0.3 1.1 1.8 2.0 2.3 2.1 2.1 2.3 1.5 0.9 1.8 3.7 5.3 3.8 0.7 0.7 1.4 2.0 2.7 3.9 4.3 5.1 5.7 5.9 6.4 7.2 6.4 7.0 7.9 8.4 9.4 10.7 7.9 9.7 9.5 9.3 8.3 9.0 9.2 8.9 8.3 7.8 8.2 8.5 8.9 8.4 7.1 6.6 6.4 7.3
0.5 0.1 0.0 0.1 0.1 0.6 0.9 1.4 1.1 1.8 2.7 2.1 2.8 2.5 2.7 2.3 2.1 2.0 1.9 1.3 1.8 2.3 3.4 4.2 5.1 5.9 6.5 6.2 7.1 7.8 12.2 9.1 7.7 11.3 12.3 13.8 16.6 18.0 14.7 9.5 9.8 9.2 10.6 11.2 10.3 11.4 11.1 11.1 10.4 9.9 9.4 8.5 8.4 8.1
2.0 1.2 0.8 0.6 1.0 1.1 0.5 0.5 0.7 1.3 1.0 1.4 1.9 2.2 2.5 2.3 1.9 2.1 2.6 2.8 2.8 3.2 3.4 4.8 5.5 5.0 4.8 5.0 5.8 6.4 8.0 7.4 9.0 13.6 18.7 21.1 23.0 28.8 24.1 13.3 11.0 11.7 12.1 12.1 12.0 13.1 13.3 12.4 11.9 10.9 11.1 10.9 9.7 9.2